Location: Peebles
(55.6412°N, 3.1714°W)
Time: 18:48:42
(UTC+01:00)

ISS - Pass Details

Date: 03 October 2021
Orbit: 417 x 423 km, 51.6° (Epoch: 23 October)

Event Time Altitude Azimuth Distance (km) Brightness Sun altitude
Rises 19:15:38 0° 273° (W) 2,365 3.0 -5.5°
Reaches altitude 10° 19:17:57 10° 259° (W) 1,499 0.7 -5.8°
Maximum altitude 19:20:45 24° 203° (SSW) 909 -1.8 -6.2°
Drops below altitude 10° 19:23:31 10° 147° (SSE) 1,497 -1.3 -6.6°
Enters shadow 19:25:20 - 136° (SE) 2,158 -0.6 -6.9°
